TimeCST,TemperatureF,Dew PointF,Humidity,Sea Level PressureIn,VisibilityMPH,Wind Direction,Wind SpeedMPH,Gust SpeedMPH,PrecipitationIn,Events,Conditions,WindDirDegrees,DateUTC
12:56 AM,34.9,26.1,70,30.37,10.0,Variable,5.8,-,N/A,,Clear,0,2012-11-14 06:56:00
1:56 AM,34.9,26.1,70,30.36,10.0,NNE,5.8,-,N/A,,Clear,30,2012-11-14 07:56:00
2:56 AM,34.0,26.1,73,30.37,10.0,NNE,5.8,-,N/A,,Clear,30,2012-11-14 08:56:00
3:56 AM,32.9,26.1,76,30.36,10.0,NNE,4.6,-,N/A,,Clear,30,2012-11-14 09:56:00
4:56 AM,32.9,27.1,79,30.36,10.0,Calm,Calm,-,N/A,,Clear,0,2012-11-14 10:56:00
5:56 AM,32.9,28.0,82,30.38,10.0,NNE,4.6,-,N/A,,Partly Cloudy,30,2012-11-14 11:56:00
6:56 AM,34.0,28.0,79,30.39,10.0,North,3.5,-,N/A,,Clear,360,2012-11-14 12:56:00
8:56 AM,43.0,31.1,63,30.41,10.0,ENE,8.1,-,N/A,,Clear,70,2012-11-14 14:56:00
9:56 AM,47.8,32.0,54,30.40,10.0,NE,8.1,-,N/A,,Clear,50,2012-11-14 15:56:00
10:56 AM,52.9,32.9,47,30.39,10.0,Variable,5.8,-,N/A,,Clear,0,2012-11-14 16:56:00
11:56 AM,55.9,34.9,45,30.34,10.0,Variable,6.9,-,N/A,,Clear,0,2012-11-14 17:56:00
12:56 PM,56.8,34.9,44,30.33,10.0,Calm,Calm,-,N/A,,Clear,0,2012-11-14 18:56:00
1:56 PM,55.9,36.0,47,30.31,10.0,Variable,6.9,-,N/A,,Clear,0,2012-11-14 19:56:00
2:56 PM,52.9,34.9,50,30.30,10.0,NNE,6.9,-,N/A,,Clear,20,2012-11-14 20:56:00
3:56 PM,52.9,36.0,53,30.33,10.0,NNW,8.1,-,N/A,,Clear,340,2012-11-14 21:56:00
4:56 PM,47.8,36.0,63,30.33,10.0,North,5.8,-,N/A,,Clear,360,2012-11-14 22:56:00
5:56 PM,43.0,36.9,79,30.34,10.0,Calm,Calm,-,N/A,,Clear,0,2012-11-14 23:56:00
6:56 PM,39.9,36.0,86,30.34,10.0,Calm,Calm,-,N/A,,Partly Cloudy,0,2012-11-15 00:56:00
7:56 PM,36.9,34.9,93,30.34,10.0,Calm,Calm,-,N/A,,Clear,0,2012-11-15 01:56:00
8:56 PM,34.9,34.0,97,30.34,10.0,Calm,Calm,-,N/A,,Clear,0,2012-11-15 02:56:00
9:56 PM,34.0,34.0,100,30.34,10.0,Calm,Calm,-,N/A,,Clear,0,2012-11-15 03:56:00
10:56 PM,32.9,32.9,100,30.33,10.0,Calm,Calm,-,N/A,,Clear,0,2012-11-15 04:56:00
11:56 PM,32.9,32.0,96,30.32,9.0,Calm,Calm,-,N/A,,Clear,0,2012-11-15 05:56:00